Location: *
(48.8667°N, 2.3331°E)
Time: 13:05:19
(UTC+00:00)

ATLAS CENTAUR R/B - Pass Details

Date: 09 April 2020
Orbit: 466 x 681 km, 64.7° (Epoch: 26 May)

Event Time Altitude Azimuth Distance (km) Brightness Sun altitude
Rises 21:54:01 0° 317° (NW) 2,658 6.1 -27.5°
Reaches altitude 10° 21:56:17 10° 313° (NW) 1,733 4.8 -27.7°
Enters shadow 21:58:21 28° 300° (WNW) 956 3.0 -27.9°
